STARLINK-5560

decayed
NORAD ID: 55749 Int'l Des: 2023-028 Owner: SPXS Country: US Constellation: starlink
LEOCIRCULAR
グループ

STARLINK-5560について

説明を読み込み中...

高度履歴

Altitude vs Time

uPlot chart will show altitude changes over time

軌道要素

1 55749U 23028J 25188.90170438 .24789742 45349-5 14842-3 0 9996
2 55749 69.9691 120.2006 0010466 247.3202 228.2759 16.54083715129883
Epoch: Jul 7, 2025 • Age: 1734 hours

現在のステータス

Position data unavailable
打ち上げ日 Mar 3, 2023
運用期間 2.5 years
落下予定日 Jul 7, 2025
タイプ internet

技術仕様

分類 Payload
質量 305.00 kg
乾燥質量 290.00 kg
総質量 305.00 kg
長さ 0.20 m
直径 2.80 m
スパン 9.00 m
形状 Box + pan
製造者 SPXS
バスタイプ Starlink
フェーズステータス Reentered
所有者/国 SPXS/US

大規模コンステレーション

Loading constellations...